Regional Weather Roundup
Issued by NWS Charleston, SC

Current Version | Previous Version | Graphics & Text | Print | Product List | Glossary On
Versions: 1 2 3 4 5 6 7 8 9 10 11 12 13 14 15 16 17 18 19 20 21 22 23 24 25 26 27 28 29 30 31 32 33 34 35 36 37 38 39 40 41 42 43 44 45 46 47 48 49 50
000
ASUS42 KCHS 211625
RWRCHS

REGIONAL WEATHER ROUNDUP
NATIONAL WEATHER SERVICE CHARLESTON SC
1200 PM EDT THU AUG 21 2014

NOTE: "FAIR" INDICATES FEW OR NO CLOUDS BELOW 12,000 FEET WITH NO
SIGNIFICANT WEATHER AND/OR OBSTRUCTIONS TO VISIBILITY.

NOT ALL STATIONS ARE QUALITY CONTROLLED BY THE NATIONAL
WEATHER SERVICE. USE DATA WITH CAUTION...ESPECIALLY
DEWPOINT OBSERVATIONS.

SCZ027-030-031-034>040-042>050-211700-
...SOUTH CAROLINA...

CITY           SKY/WX    TMP DP  RH WIND       PRES   REMARKS
N CHARLESTON   MOSUNNY   91  73  55 W7        30.07F HX  99
WATERFRONT PRK   N/A     88 N/A N/A SW5         N/A
FORT JOHNSON   NOT AVBL
MOUNT PLEASANT FAIR      91  75  59 W6        30.07S HX 102
JOHNS ISLAND   SUNNY     91  75  59 CALM      30.07F HX 102
PINOPOLIS        N/A     88  73  62 NW5       30.00F HX  96
MONCKS CORNER    N/A     90  75  62 W5        30.07F HX 100
SUMMERVILLE    FAIR      90  73  58 CALM      30.08F HX  98
BEAUFORT MCAS  PTSUNNY   89  74  60 N6        30.08F HX  98
BEAUFORT ARPT  FAIR      88  77  70 SW3       30.08F HX 100
HILTON HEAD IS SUNNY     84  72  65 SE5       30.09F
GEORGETOWN     NOT AVBL
WALTERBORO     SUNNY     91  64  40 NW5       30.08F HX  93
ORANGEBURG     SUNNY     89  69  51 VRB5      30.09F HX  93
BARNWELL       FAIR      93  66  40 NW5       30.10S HX  96
AIKEN          FAIR      91  70  49 N7        30.14S HX  97
MANNING        FAIR      91  73  55 CALM      30.07F HX 100
KINGSTREE      NOT AVBL
COLUMBIA       MOSUNNY   93  62  35 VRB7      30.09S HX  93
SUMTER         SUNNY     90  72  56 N3        30.08S HX  97
FLORENCE       SUNNY     91  72  53 E5        30.07F HX  98
MYRTLE BEACH   SUNNY     91  75  59 W8        30.06S HX 102
N MYRTLE BEACH SUNNY     90  76  63 CALM      30.05F HX 101

$$

GAZ063-065-086>088-099>101-113>116-118-119-134-136>141-150-211700-
...GEORGIA...

CITY           SKY/WX    TMP DP  RH WIND       PRES   REMARKS
SAVANNAH ARPT  PTSUNNY   88  72  58 W5        30.10S HX  94
HUNTER AAF     MOSUNNY   88  73  62 NW8       30.08F HX  95
FORT STEWART   MOSUNNY   88  69  53 VRB7      30.09F HX  93
STATESBORO     NOT AVBL
SYLVANIA       SUNNY     90  75  61 CALM      30.10F HX 100
CLAXTON        FAIR      88  77  70 CALM      30.11F HX 100
THOMSON        SUNNY     90  74  57 CALM      30.16S HX  99
AUGUSTA-BUSH   SUNNY     90  68  48 CALM      30.10S HX  94
AUGUSTA-DANIEL SUNNY     90  66  45 CALM      30.12S HX  92
SWAINSBORO     FAIR      95  70  43 NW9       30.11F HX 101
VIDALIA          N/A     90  72  55 W7        30.12F HX  96
ALMA           SUNNY     89  70  53 VRB6      30.12F HX  94
WAYCROSS       SUNNY     94  73  50 CALM      30.11F HX 104
JESUP            N/A     93  72  49 NW6       30.11S HX 100
BRUNSWICK      SUNNY     91  68  46 W7        30.10F HX  95
SAINT SIMONS   SUNNY     91  71  51 W8        30.10F HX  97

$$

SCZ027-028-034-036>038-045-046-048>050-GAZ119-141-211700-
...LAKE AND SUPPLEMENTAL COASTAL OBSERVATIONS...

STATION/POSITION TIME  TEMP    WIND        PRES    WAVE   SWELL
                       AIR SEA DIR/SP/G            HT/PER HT/PER/DIR
                 (UTC) (F)     (DEG/KT/KT) (MB)    (FT/S) (FT/S/D)
UPR LAKE MARION  NOT AVBL
WINYAH BAY       1600   88     260/  5     1018.0S
LAKE MURRAY      1500   85     270/  4/  7 1018.6S
ACE BASIN NERRS  1600   89     300/  2     1019.0S
FORT PULASKI     1600   84     280/  4/  4 1019.1F
SAPELO ISLAND    1600   90     260/  4     1020.0S

$$

ANZ835-935-AMZ111-154-330-350-352-354-374-450-454-472-211700-
...C-MAN AND BUOY OBSERVATIONS...

STATION/POSITION TIME  TEMP    WIND        PRES    WAVE   SWELL
                       AIR SEA DIR/SP/G            HT/PER HT/PER/DIR
                 (UTC) (F)     (DEG/KT/KT) (MB)    (FT/S) (FT/S/D)
FOLLY BEACH CMAN 1600   87     210/  6/  9 1018.7F
BUOY 41004       1600   83 84  250/ 10/ 12 1017.6S   2/ 5   2/ 5
BUOY 41008       1600   82 85  280/  8/  8 1019.2F   1/ 8   2/130/ 8
5E ST. MARYS GA  1600      83                N/A     1/ 9
FRYING PAN BUOY  NOT AVBL
BUOY 41025       1600   80     190/  4/  6 1018.1R   2/ 9   2/ 50/ 9
CAPE LOOKOUT NC  1600   83     180/  7/ 10 1017.8F
BUOY 41002       1536   82 82  250/ 14/ 16 1020.0R   3/ 5   2/120/ 8
BUOY 41010       1600   85 86  260/  6/  8 1020.5F   2/ 8   2/130/ 8
BUOY 41012       NOT AVBL
ST AUGUSTINE FL  1600   82     100/  4/  4 1020.8F
CAPERS NEARSHORE 1500   85     310/  4/  6   N/A
FRIPP NEARSHORE  NOT AVBL


$$


USA.gov is the U.S. government's official web portal to all federal, state and local government web resources and services.